Orbital Elements at Epoch 2459200.5 (2020-Dec-17.0) TDB
Reference: JPL 6 (heliocentric ecliptic J2000)
Element | Value | Uncertainty (1-sigma) | Units |
e | .0663542529512641 | 1.2468e-05 | |
a | 44.21721907275823 | 0.0014211 | au |
q | 41.28321853360297 | 0.0010219 | au |
i | .3726526431228391 | 9.5122e-05 | deg |
node | 51.36513740198274 | 0.0017849 | deg |
peri | 241.007638480127 | 0.019795 | deg |
M | 305.9634527274724 | 0.019037 | deg |
tp | 2475320.708529889300 (2065-Feb-04.20852989) | 4.9113 | TDB |
period | 107395.3715342311 294.03 | 5.1772 0.01417 | d yr |
n | .003352099767961174 | 1.616e-07 | deg/d |
Q | 47.15121961191349 | 0.0015154 | au |
|
| | Orbit Determination Parameters
Additional Information
|